Vorticity
7 5 4 5 5 5 5 6 7 7 8 5 12 4 5 4 5 7 11 4 7 4 -6 0 4 4 6 14 7 27 5 5 -1 3 9 6 7 5 5 6 6 6 6 5 4
6 6 6 5 5 5 5 6 6 6 7 7 8 6 6 5 6 1 7 4 6 8 6 -2 1 3 8 1 3 7 9 7 6 10 8 5 4 3 8 6 4 4 5 5 6
8 8 7 7 6 5 5 6 6 6 6 7 6 9 8 6 3 6 4 6 5 4 3 3 1 4 1 5 8 6 14 7 5 4 4 3 5 3 5 6 5 5 5 6 6
6 7 7 9 9 7 6 6 6 6 6 4 5 8 5 10 -3 4 3 3 5 5 5 5 7 6 12 12 11 9 5 4 7 5 3 3 6 6 6 7 6 5 6 8 8
7 6 7 9 9 7 7 8 7 5 4 4 3 3 -7 -4 19 8 10 9 9 7 11 13 14 14 7 7 10 10 6 5 5 5 4 5 6 5 8 6 7 7 9 7 6
6 7 7 9 9 7 8 8 6 4 4 8 10 11 9 3 8 6 7 8 5 6 6 9 13 12 15 8 8 7 4 -0 2 4 5 2 9 9 8 6 8 9 6 5 4
6 7 6 9 10 9 8 5 6 8 9 7 3 3 -3 29 5 6 7 5 6 9 10 10 10 10 7 5 8 5 10 -0 -2 2 3 3 9 4 10 6 7 8 8 6 4
6 7 8 11 11 12 8 8 7 7 6 4 10 12 16 7 6 7 9 13 12 10 9 8 9 9 0 7 6 1 3 6 3 4 4 4 8 7 5 6 7 6 4 3 5
7 8 8 9 9 7 6 6 11 10 13 13 13 7 12 10 9 8 7 9 7 6 9 7 7 6 7 8 4 1 5 5 10 4 5 10 -1 -6 9 5 5 5 5 4 6
7 7 8 9 8 9 10 10 6 6 6 5 6 7 10 5 7 7 5 5 5 6 5 6 2 7 7 8 6 4 6 3 3 -6 6 0 13 7 6 6 5 4 4 5 7
7 7 9 10 9 8 6 4 4 -5 3 19 19 12 5 3 4 6 5 5 5 4 7 6 8 7 7 9 9 8 6 3 5 6 1 10 10 8 6 9 6 6 3 6 6
7 6 12 6 13 4 2 4 14 13 7 6 5 6 6 5 4 5 6 5 9 7 4 6 8 7 7 5 8 9 7 6 10 -1 12 5 9 12 15 9 7 3 6 7 5
6 9 11 12 5 2 10 10 4 6 4 6 7 7 7 6 6 6 7 9 9 9 11 9 7 8 7 6 9 11 6 4 4 11 14 14 25 8 11 9 4 9 9 7 6
7 8 13 2 -2 13 3 7 1 -3 6 9 3 8 6 5 6 8 7 9 9 8 6 4 7 9 3 9 10 15 -0 4 9 23 7 -4 -2 16 9 3 9 7 16 10 8
7 12 6 3 18 4 4 -2 1 -1 0 11 11 8 16 2 5 10 7 9 9 11 8 9 9 7 2 11 9 -3 5 7 29 15 11 24 15 0 5 3 5 2 12 12 10
10 11 2 3 9 2 2 4 5 2 14 8 8 6 6 9 11 9 10 9 6 4 11 3 9 10 1 11 9 2 2 31 14 13 16 8 2 16 11 0 2 4 12 10 8
10 8 7 13 3 -0 4 9 2 8 19 14 10 8 9 8 7 9 6 9 10 11 7 12 8 13 -4 12 13 1 7 13 15 14 -4 0 23 -12 1 4 1 12 18 9 10
7 9 8 8 -2 2 6 11 5 17 -1 8 8 7 8 3 8 10 8 5 8 10 12 8 13 5 -1 12 5 7 5 13 11 5 -15 23 15 -14 -0 0 -1 19 14 5 9
10 9 11 -4 4 5 8 7 2 18 15 9 3 2 3 10 7 6 6 8 6 8 13 9 12 7 2 12 7 2 3 15 13 21 17 9 6 -1 -8 -1 5 14 11 8 9
9 9 2 5 2 5 5 -3 13 8 12 8 -2 7 7 8 6 8 11 4 8 9 9 2 17 9 -0 13 11 5 5 7 13 10 17 15 9 -18 2 6 4 18 2 12 10
9 9 1 -0 3 8 3 7 16 16 6 4 9 10 6 7 9 8 5 8 6 8 9 7 11 0 7 7 6 4 8 6 17 11 3 5 -12 15 -9 6 3 10 7 15 9
9 6 3 -0 3 9 7 15 13 6 3 10 9 8 9 10 8 7 7 7 6 7 10 6 12 3 11 12 11 7 3 13 14 8 5 -3 4 -23 1 3 11 3 16 12 5
11 4 6 2 9 3 13 14 9 6 8 7 6 8 8 11 7 8 9 8 7 6 5 3 -1 10 13 11 6 -5 1 6 9 23 9 5 -37 4 4 12 8 11 15 9 4
8 7 6 10 2 11 14 8 4 5 5 10 8 7 7 8 12 5 7 10 7 9 8 11 4 8 -5 -7 0 5 15 15 17 12 -14 -39 -9 6 10 11 10 12 11 7 7
8 14 15 30 -0 10 8 14 8 7 4 8 8 4 7 5 6 7 7 6 12 8 7 5 10 3 7 16 3 9 13 10 14 15 3 1 7 4 12 9 8 9 11 8 9
5 -2 12 -18 3 6 5 4 9 8 9 9 4 8 6 6 5 4 5 7 14 5 3 10 1 -2 3 12 4 20 13 4 6 12 5 11 7 10 6 9 11 13 10 9 11
5 5 8 23 16 2 5 2 8 6 10 8 8 8 8 7 7 6 5 5 3 5 6 9 3 4 20 -12 21 44 -4 12 -12 -2 19 12 17 13 6 11 13 13 11 11 13
Height
3173 3174 3176 3177 3178 3179 3180 3180 3183 3183 3184 3185 3185 3186 3188 3190 3191 3193 3194 3195 3195 3196 3196 3196 3196 3197 3197 3196 3195 3195 3195 3195 3197 3198 3199 3199 3199 3199 3199 3199 3198 3197 3197 3196 3194
3176 3177 3177 3178 3181 3182 3183 3184 3185 3186 3186 3187 3188 3190 3192 3193 3194 3194 3196 3196 3197 3198 3199 3199 3198 3198 3197 3197 3197 3197 3197 3197 3198 3198 3199 3200 3199 3200 3200 3199 3198 3197 3196 3194 3192
3177 3178 3180 3181 3183 3184 3186 3186 3187 3188 3189 3189 3191 3193 3195 3196 3197 3198 3198 3199 3199 3200 3200 3200 3200 3200 3199 3198 3198 3198 3198 3198 3198 3199 3200 3200 3200 3200 3199 3198 3197 3197 3194 3191 3190
3180 3180 3182 3184 3185 3187 3187 3188 3189 3190 3191 3193 3194 3195 3196 3197 3200 3199 3200 3200 3200 3201 3201 3200 3200 3200 3199 3199 3199 3199 3199 3199 3200 3200 3200 3200 3200 3199 3198 3198 3196 3194 3192 3191 3188
3181 3184 3185 3186 3187 3187 3189 3190 3191 3193 3194 3195 3197 3197 3198 3199 3199 3199 3200 3200 3200 3199 3199 3199 3200 3200 3200 3200 3200 3200 3200 3200 3201 3201 3200 3199 3198 3197 3196 3195 3193 3192 3190 3187 3185
3185 3186 3187 3188 3188 3190 3191 3192 3193 3195 3196 3197 3198 3198 3200 3202 3200 3200 3201 3201 3200 3200 3199 3199 3199 3200 3200 3200 3201 3201 3201 3201 3201 3200 3199 3198 3197 3195 3195 3192 3191 3189 3187 3185 3183
3187 3187 3188 3189 3191 3192 3193 3194 3195 3196 3197 3198 3200 3200 3201 3203 3202 3202 3202 3202 3201 3200 3201 3201 3201 3202 3201 3201 3202 3201 3202 3201 3200 3200 3199 3198 3196 3194 3192 3190 3188 3186 3185 3183 3181
3188 3189 3191 3192 3193 3194 3195 3196 3197 3198 3199 3201 3201 3201 3202 3203 3203 3203 3202 3202 3202 3201 3202 3202 3202 3203 3203 3202 3202 3202 3202 3201 3200 3199 3198 3197 3195 3192 3189 3187 3185 3184 3182 3181 3178
3190 3191 3193 3194 3195 3196 3197 3198 3199 3200 3201 3202 3203 3203 3205 3205 3205 3204 3204 3204 3203 3203 3203 3203 3204 3204 3204 3203 3203 3202 3201 3200 3199 3198 3196 3195 3192 3189 3187 3184 3182 3181 3179 3176 3174
3192 3193 3194 3195 3197 3198 3199 3200 3201 3202 3204 3204 3205 3208 3207 3207 3206 3206 3205 3205 3205 3204 3205 3205 3205 3204 3204 3203 3203 3201 3199 3198 3198 3197 3194 3191 3189 3186 3184 3181 3179 3177 3174 3171 3168
3193 3194 3196 3197 3199 3200 3201 3202 3206 3207 3205 3205 3206 3207 3207 3208 3208 3207 3207 3207 3206 3206 3205 3205 3205 3204 3203 3202 3201 3200 3199 3198 3196 3195 3192 3189 3186 3184 3181 3178 3176 3173 3170 3166 3163
3194 3196 3198 3199 3201 3202 3204 3204 3205 3208 3207 3207 3207 3208 3208 3208 3209 3208 3208 3208 3207 3206 3206 3206 3204 3203 3202 3202 3201 3200 3198 3197 3196 3193 3190 3187 3183 3180 3177 3176 3174 3171 3168 3164 3161
3195 3197 3199 3201 3203 3204 3205 3206 3207 3208 3209 3209 3209 3209 3210 3210 3209 3209 3208 3208 3207 3206 3205 3204 3205 3203 3202 3202 3201 3199 3198 3197 3194 3190 3187 3184 3178 3176 3175 3173 3173 3170 3166 3162 3158
3196 3198 3200 3203 3207 3206 3207 3208 3209 3209 3210 3212 3211 3211 3211 3210 3210 3209 3208 3209 3207 3206 3205 3205 3204 3203 3203 3202 3201 3199 3198 3195 3191 3189 3187 3184 3180 3174 3172 3172 3171 3168 3163 3159 3156
3197 3199 3201 3204 3206 3208 3210 3209 3209 3210 3211 3213 3211 3210 3209 3211 3210 3209 3208 3207 3206 3206 3206 3205 3203 3203 3202 3201 3200 3199 3196 3192 3188 3186 3185 3182 3182 3171 3170 3169 3167 3163 3159 3156 3152
3197 3199 3202 3205 3206 3209 3210 3210 3211 3213 3209 3210 3210 3210 3210 3209 3209 3208 3208 3207 3206 3205 3204 3204 3203 3203 3202 3200 3199 3197 3194 3189 3186 3185 3183 3180 3180 3168 3168 3167 3164 3159 3156 3152 3148
3198 3200 3203 3205 3207 3208 3210 3211 3213 3209 3210 3211 3210 3209 3209 3209 3208 3208 3207 3207 3206 3206 3204 3203 3203 3202 3202 3200 3198 3197 3194 3190 3188 3185 3182 3178 3178 3166 3165 3163 3161 3156 3151 3147 3143
3198 3200 3202 3205 3207 3208 3209 3212 3210 3208 3207 3208 3209 3209 3209 3208 3208 3207 3207 3207 3205 3204 3203 3202 3202 3202 3201 3200 3198 3195 3195 3195 3194 3189 3181 3176 3171 3165 3164 3161 3157 3153 3148 3144 3139
3197 3200 3202 3205 3206 3208 3210 3209 3207 3206 3207 3208 3208 3208 3208 3208 3208 3207 3207 3206 3205 3204 3204 3202 3201 3201 3200 3198 3198 3195 3194 3194 3191 3186 3183 3172 3167 3164 3160 3157 3153 3148 3144 3141 3136
3196 3199 3202 3204 3205 3207 3208 3207 3206 3205 3206 3207 3207 3208 3208 3207 3207 3206 3206 3206 3205 3204 3202 3202 3200 3199 3198 3197 3196 3195 3195 3192 3190 3187 3182 3169 3164 3160 3157 3153 3149 3145 3142 3136 3131
3196 3199 3201 3203 3205 3206 3205 3205 3204 3204 3206 3207 3207 3206 3207 3206 3206 3206 3207 3207 3205 3204 3202 3201 3201 3200 3197 3195 3194 3193 3191 3191 3190 3187 3184 3177 3162 3157 3155 3151 3147 3142 3137 3131 3127
3195 3197 3200 3202 3204 3203 3203 3203 3203 3204 3205 3205 3206 3206 3206 3206 3205 3206 3206 3205 3204 3203 3202 3201 3199 3196 3195 3193 3191 3191 3189 3188 3187 3184 3180 3176 3158 3154 3151 3148 3143 3137 3132 3127 3122
3193 3196 3198 3200 3201 3202 3202 3202 3202 3203 3204 3204 3205 3206 3206 3205 3206 3205 3205 3205 3204 3202 3202 3200 3198 3195 3192 3193 3190 3187 3186 3184 3183 3179 3173 3173 3156 3152 3148 3143 3138 3132 3127 3123 3117
3193 3194 3196 3197 3199 3200 3201 3201 3201 3202 3203 3203 3204 3205 3205 3205 3205 3205 3205 3205 3204 3202 3201 3199 3196 3195 3194 3191 3188 3185 3182 3180 3178 3175 3168 3160 3152 3152 3146 3139 3134 3128 3123 3118 3113
3189 3191 3192 3194 3196 3198 3199 3200 3200 3200 3201 3202 3203 3204 3204 3204 3204 3204 3204 3203 3203 3201 3200 3198 3195 3193 3191 3188 3184 3181 3179 3177 3173 3169 3163 3154 3149 3148 3143 3136 3130 3125 3119 3115 3109
3187 3189 3190 3192 3194 3195 3196 3197 3199 3199 3200 3200 3201 3202 3203 3203 3203 3202 3203 3202 3201 3200 3197 3195 3193 3189 3186 3184 3180 3175 3174 3172 3169 3164 3157 3152 3144 3142 3138 3132 3127 3121 3116 3111 3105
3183 3185 3187 3188 3190 3192 3194 3195 3197 3198 3199 3198 3199 3200 3201 3201 3201 3200 3200 3200 3199 3198 3196 3193 3190 3187 3182 3180 3176 3172 3170 3168 3164 3160 3155 3148 3143 3138 3133 3127 3122 3117 3112 3106 3101